Regional Weather Roundup
Issued by NWS

Home | Current Version | Previous Version | Graphics & Text | Print | Product List | Glossary On
Versions: 1 2 3 4 5 6 7 8 9 10 11 12 13 14 15 16 17 18 19 20 21 22 23 24 25 26 27 28 29 30 31 32 33 34 35 36 37 38 39 40 41 42 43 44 45 46 47 48 49 50
377
ASUS45 KBOU 250307
RWRCO

WEATHER ROUNDUP FOR COLORADO
NATIONAL WEATHER SERVICE DENVER/BOULDER CO
900 PM MDT SAT JUN 24 2017

NOTE: "FAIR" INDICATES FEW OR NO CLOUDS BELOW 12000 FEET WITH NO
SIGNIFICANT WEATHER AND/OR OBSTRUCTIONS TO VISIBILITY.

COZ001>005-013-030-031-250400-
...NORTHWEST COLORADO...

CITY           SKY/WX    TMP DP  RH WIND       PRES   REMARKS
CRAIG          FAIR      63  41  44 CALM      30.27S
HAYDEN         FAIR      64  28  25 NE6       30.30S
MEEKER         FAIR      64  30  27 NE5       30.27S
RABBIT EARS PA FAIR      50  28  43 NE5       30.57S
STEAMBOAT SPGS FAIR      61  36  38 NW3       30.32R
WALDEN         FAIR      55  30  38 NE9       30.43R
$$

COZ006>008-011-250400-
...WEST CENTRAL VALLEYS...

CITY           SKY/WX    TMP DP  RH WIND       PRES   REMARKS
GRAND JUNCTION FAIR      84  21  10 NE15      30.09R
MONTROSE       FAIR      79  30  16 NW10      30.16R
EAGLE          NOT AVBL
RIFLE          FAIR      76  26  15 N3        30.20R
DELTA          FAIR      84  23  10 N15       30.12R
NUCLA          NOT AVBL
$$

COZ017>023-064>068-250400-
...SOUTHWEST COLORADO...

CITY           SKY/WX    TMP DP  RH WIND       PRES   REMARKS
DURANGO        FAIR      75  14  10 N3        30.19R
CORTEZ         FAIR      79   5   6 N9        30.14R
PAGOSA SPRINGS FAIR      75   6   7 NW7       30.28R
TELLURIDE      FAIR      67  17  15 CALM      30.44R
WOLF CREEK PAS NOT AVBL
$$

COZ009-010-012-014-032>034-037-058>063-250400-
...CENTRAL COLORADO...

CITY           SKY/WX    TMP DP  RH WIND       PRES   REMARKS
ASPEN          FAIR      63  25  23 S3        30.35R
BUENA VISTA    FAIR      60  44  54 E6        30.42R
COPPER MTN     FAIR      54  19  26 NW17      30.66R
BERTHOUD PASS  HAZE      36  23  60 S13G18    30.70R VSB<1/4
COTTONWOOD PAS FAIR      57  43  58 E7        30.53R
GUNNISON       FAIR      67  31  26 N7        30.31R
KREMMLING      NOT AVBL
LEADVILLE      FAIR      57  20  23 N12       30.49R
SALIDA         FAIR      63  47  56 E10G18    30.46R
SUNLIGHT       FAIR      52  19  28 N3        30.61R
WILKERSON PASS CLOUDY    43  39  87 E12G18    30.65R
$$

COZ069>075-250400-
...SAN LUIS VALLEY/SANGRE DE CRISTO MOUNTAINS...

CITY           SKY/WX    TMP DP  RH WIND       PRES   REMARKS
ALAMOSA        FAIR      61  47  59 E16G26    30.28R
DEL NORTE      NOT AVBL
LA VETA PASS   CLOUDY    45  43  93 N21G26    30.66R
SAGUACHE       FAIR      72  14  11 N12       30.31R
$$

COZ035-036-038>040-250400-
...NORTHERN COLORADO FRONT RANGE...

CITY           SKY/WX    TMP DP  RH WIND       PRES   REMARKS
DENVER INTL AP MOCLDY    66  48  52 NE15      30.31R
DMNS CITY PARK   N/A     67  47  48 E7G18     30.32R
AURORA         NOT AVBL
FRONT RANGE AP CLOUDY    66  48  52 NE12      30.33R
ERIE MUNI ARPT CLOUDY    68  46  46 E9        30.31R
BOULDER MUN AP MOCLDY    68  46  45 E6        30.32R
CENTENNIAL     FAIR      66  46  48 NE7       30.33R
BROOMFIELD     CLOUDY    68  46  45 E10       30.34R
FORT COLLINS   CLOUDY    69  46  43 E10       30.32R
LONGMONT       CLOUDY    70  47  44 E12       30.33R
$$

COZ041-046-047-076>085-087-088-250400-
...PIKES PEAK/PALMER DIVIDE AND SOUTHERN FOOTHILLS...

CITY           SKY/WX    TMP DP  RH WIND       PRES   REMARKS
COLO. SPRINGS  MOCLDY    66  47  50 SE3       30.36R
A. F. ACADEMY  NOT AVBL
SCHRIEVER AFB  NOT AVBL
CHEYENNE MTN   NOT AVBL
ELLICOTT       FAIR     N/A N/A N/A SE8       30.34R
FALCON           N/A     62  44  51 S5        30.41R
FORT CARSON    NOT AVBL
LIMON          FAIR      60  45  57 SE6       30.32R
MONUMENT HILL  MOCLDY    59  43  55 S5        30.40S
CANON CITY     CLOUDY    70  52  52 SE5       30.30R
WALSENBURG     MOCLDY    64  50  59 N10       30.33R
TRINIDAD       FAIR      68  47  46 W14       30.28R
$$

COZ042>045-048>051-090-091-250400-
...NORTHEAST COLORADO...

CITY           SKY/WX    TMP DP  RH WIND       PRES   REMARKS
GREELEY ARPT   FAIR      68  47  46 E9        30.31R
AKRON          MOCLDY    63  47  55 E9        30.31R
BURLINGTON     CLOUDY    63  56  78 SE5       30.28R
WRAY           FAIR      63  46  55 E5        30.29R
YUMA           CLOUDY    63  48  59 E7        30.30R
STERLING       FAIR      64  46  52 E5        30.28R
HOLYOKE        NOT AVBL
FORT MORGAN    FAIR      60  49  68 NE7       30.31R
$$

COZ086-089-092>099-250400-
...SOUTHEAST COLORADO...

CITY           SKY/WX    TMP DP  RH WIND       PRES   REMARKS
PUEBLO         CLOUDY    71  48  43 E7        30.26R
LA JUNTA       FAIR      69  52  54 E10       30.24R
LAMAR          FAIR      67  50  54 SE8       30.23R
SPRINGFIELD      N/A     67  54  63 S10       30.29R
$$




USA.gov is the U.S. government's official web portal to all federal, state and local government web resources and services.